Helicity
166 169 144 171 178 174 164 160 208 185 256 329 419 228 112 153 13 72 179 104 110 129 142 141 185 113 85 80 79 77 87 118
213 237 192 183 162 173 161 170 165 290 322 333 368 268 284 302 -11 42 120 126 111 115 120 136 123 85 81 95 72 128 154 99
224 265 206 178 185 186 180 142 233 313 347 310 317 315 212 55 59 84 81 137 108 101 111 145 99 104 117 103 111 90 124 110
247 271 215 185 176 201 217 233 286 351 376 367 357 316 311 141 190 97 54 127 102 94 116 141 117 151 108 116 105 91 82 73
288 287 221 206 204 218 245 280 330 355 379 374 332 307 276 243 223 145 98 129 145 125 116 155 114 159 81 132 112 76 52 45
347 297 259 229 235 240 243 281 330 270 270 320 411 378 318 279 263 251 151 145 110 114 100 104 117 117 122 126 83 59 57 38
351 361 296 257 246 255 270 275 251 198 248 329 379 391 366 313 284 173 150 176 83 109 169 175 146 114 117 105 96 75 44 32
340 379 327 308 267 290 288 297 190 165 241 231 254 354 267 194 205 286 180 121 131 164 168 200 154 104 134 124 101 74 62 34
341 359 351 316 279 282 280 185 155 157 172 121 206 354 410 243 216 235 214 180 155 182 212 240 156 120 120 120 89 77 62 37
383 352 343 265 273 263 177 88 115 125 212 172 158 172 406 335 374 202 184 211 188 160 174 224 136 143 133 112 111 81 61 52
407 314 300 237 226 198 137 88 93 87 157 218 100 107 373 332 256 195 184 156 154 124 174 193 199 173 120 119 102 84 73 55
382 251 278 251 237 163 143 108 66 78 94 193 122 206 171 187 191 185 192 170 178 157 123 192 274 205 163 116 95 98 85 56
362 295 324 300 269 213 176 157 78 49 -10 54 115 194 231 208 200 178 172 163 140 106 155 177 299 253 260 187 146 99 72 64
342 300 345 267 255 221 178 157 81 53 -16 50 87 153 161 149 112 129 143 147 149 159 162 303 276 224 242 253 211 152 70 51
324 316 309 256 268 282 268 211 161 80 85 74 80 129 142 86 112 142 131 134 115 162 181 217 267 221 218 225 262 173 156 106
287 310 314 277 252 260 239 217 169 96 100 98 62 100 173 148 76 98 133 191 155 163 195 234 283 237 301 269 233 155 203 179
292 288 298 279 222 202 215 188 165 168 112 97 112 102 24 94 57 111 150 214 191 224 185 225 276 287 296 361 334 245 214 172
278 281 261 244 201 176 185 185 160 123 123 128 94 139 139 183 205 192 197 219 248 230 260 267 323 313 320 298 309 320 251 251
240 263 265 190 177 165 171 171 148 92 78 85 88 136 250 281 253 265 242 303 327 272 319 349 335 319 330 346 305 293 274 245
217 242 255 179 156 148 138 154 112 50 12 33 62 116 194 445 357 344 286 348 399 387 355 388 450 473 409 369 294 298 203 191
Wind_Speed
12 12 12 9 7 7 8 11 13 16 14 17 11 17 13 24 13 14 8 12 12 15 19 18 16 12 14 12 8 6 3 5
9 8 8 6 4 4 7 9 15 16 20 20 18 17 23 20 19 10 16 14 15 19 20 20 15 14 14 13 10 3 8 22
7 5 4 5 2 2 6 12 15 19 24 26 24 20 18 22 19 14 13 15 20 22 22 18 13 12 12 10 5 4 10 10
6 3 1 2 2 5 9 14 19 22 26 28 27 27 25 26 21 21 21 18 25 26 23 18 11 11 10 9 2 7 13 13
7 4 4 3 6 9 15 20 23 21 30 32 31 30 32 38 32 32 24 21 29 27 24 21 15 13 10 8 7 13 16 14
9 5 6 7 10 14 19 21 22 19 25 35 37 37 37 41 52 38 26 27 31 29 24 17 15 14 11 6 10 10 9 9
10 6 8 8 11 17 22 18 13 14 17 26 38 43 48 46 49 45 36 36 34 32 36 36 31 20 12 10 6 5 6 4
12 8 7 8 13 17 16 9 5 11 13 25 36 44 54 51 52 55 44 38 40 44 51 37 39 23 14 8 5 4 4 6
16 9 5 8 12 14 11 4 5 6 14 23 34 48 59 54 54 62 56 48 43 46 44 44 36 24 14 12 6 3 1 8
12 7 5 5 10 10 4 2 3 8 17 30 45 68 64 66 64 57 51 50 46 43 37 31 34 22 17 17 12 5 2 7
13 8 3 1 8 8 4 5 1 12 9 21 57 75 56 57 64 55 49 47 44 46 42 39 32 23 17 16 12 6 3 2
14 8 1 3 10 7 6 5 6 14 15 16 67 55 55 65 61 55 50 50 53 46 40 44 36 28 23 13 14 10 6 6
16 9 2 4 11 10 7 8 7 11 22 36 56 60 62 62 58 56 52 48 43 42 42 37 32 29 20 19 22 19 16 14
17 9 3 3 6 9 11 8 8 11 23 35 36 57 72 63 56 51 48 45 44 45 46 44 37 29 27 20 25 32 32 24
20 10 4 4 5 8 12 9 6 6 11 21 25 48 53 59 53 48 46 44 44 45 44 41 37 32 29 31 30 36 27 29
17 11 5 7 7 4 10 9 7 4 12 15 19 24 58 53 47 46 45 48 45 44 44 42 39 36 36 36 33 28 31 33
18 10 5 7 10 7 8 14 5 2 11 18 24 26 36 37 44 47 47 55 52 47 43 41 40 40 38 34 31 28 26 29
20 13 10 9 12 11 10 11 12 7 10 20 28 36 43 48 55 53 51 57 56 52 48 43 44 42 41 30 27 28 25 30
23 15 14 13 11 13 9 9 11 13 16 22 24 38 53 69 58 60 51 55 58 55 54 48 42 39 38 32 29 28 29 36
26 19 14 15 13 12 8 6 7 10 16 14 20 38 64 66 60 60 52 52 54 53 51 51 43 37 39 39 30 37 38 43
Wind_Direction
79 98 114 109 116 143 172 187 198 204 218 195 174 209 237 283 219 166 140 145 173 174 152 154 139 131 126 124 101 87 358 359
73 82 110 107 129 176 203 215 214 208 202 206 212 203 195 195 188 183 139 168 189 190 165 163 160 140 133 120 95 26 37 77
32 54 113 137 152 268 243 235 236 223 214 221 227 221 202 184 202 203 152 182 185 183 172 175 200 166 146 131 78 347 55 62
337 351 166 157 311 284 289 289 271 246 224 221 220 223 222 236 228 198 163 180 186 183 176 189 187 163 183 121 358 43 73 79
296 274 221 251 314 316 309 298 288 263 220 212 215 218 233 241 235 217 222 169 207 186 187 206 196 164 158 227 77 76 87 86
277 256 233 279 313 315 311 304 291 259 226 203 230 230 229 229 228 222 205 201 196 184 175 174 183 164 189 173 93 86 76 78
260 252 245 281 304 316 316 306 277 251 228 218 220 227 225 225 228 214 214 209 191 181 210 214 217 213 210 134 121 100 72 49
262 237 245 284 308 317 315 307 251 212 230 211 212 217 224 216 224 218 213 207 205 210 214 216 224 222 220 215 159 118 75 67
232 231 274 302 320 328 323 302 269 220 235 204 202 213 216 220 217 214 215 213 206 210 215 218 221 227 221 218 173 149 141 91
234 240 279 301 337 344 359 152 251 293 277 244 234 231 208 217 213 210 213 211 208 207 201 202 220 221 217 227 237 231 147 91
219 213 243 321 357 10 75 122 309 336 267 229 229 218 196 207 207 208 208 209 206 206 209 210 216 219 211 230 232 225 219 330
207 211 225 35 20 49 80 104 11 18 45 163 210 204 202 204 208 210 210 212 213 211 203 220 221 222 231 229 243 243 251 277
200 199 183 58 28 48 54 97 75 51 96 135 209 212 208 208 210 213 215 210 200 196 213 196 217 221 226 250 264 270 267 278
206 209 191 128 59 59 39 80 70 67 106 128 212 215 215 217 215 214 213 210 205 207 212 217 227 208 233 241 258 270 274 281
202 209 203 148 91 59 53 54 50 91 128 141 154 216 212 214 216 214 211 209 196 199 208 204 214 222 232 256 261 271 274 283
220 213 215 160 147 103 120 101 132 225 168 177 202 192 225 224 218 215 209 217 208 208 217 215 221 209 243 256 266 276 280 283
221 231 231 164 159 157 144 145 120 247 218 213 203 217 195 206 215 220 219 224 223 213 217 217 225 227 235 246 260 278 288 290
219 218 193 173 158 158 157 156 160 193 210 221 220 236 232 227 229 224 225 229 227 224 225 223 229 232 242 236 243 263 277 292
216 203 184 175 168 159 155 155 163 180 205 217 233 242 245 234 228 227 221 230 230 230 230 230 227 228 235 240 256 264 287 288
204 192 184 174 166 157 146 134 145 169 177 213 240 254 252 236 224 225 223 227 229 229 233 233 236 235 237 249 254 274 277 284